This is the latest recevied weather packets stored in our database for station/object GW1599. If no packets are shown the sender has not sent any weather packets the latest 10 day(s).
| Time | Temp. | Humidity | Pressure | Rain* | Wind** | Luminosity | Snow |
|---|---|---|---|---|---|---|---|
| 1777409148 | 24.44° C | 68% | 1014.5 hPa | 11.43 mm | - | - | - |
| 1777408035 | 24.44° C | 66% | 1014.5 hPa | 11.43 mm | - | - | - |
| 1777407340 | 24.44° C | 69% | 1014.5 hPa | 11.43 mm | - | - | - |
| 1777402990 | 24.44° C | 72% | 1015.5 hPa | 11.43 mm | - | - | - |
| 1777400860 | 22.78° C | 77% | 1015.9 hPa | 11.43 mm | - | - | - |
| 1777399047 | 21.67° C | 77% | 1015.9 hPa | 11.43 mm | - | - | - |
| 1777395096 | 20° C | 80% | 1015.9 hPa | 11.43 mm | - | - | - |
| 1777392593 | 20° C | 78% | 1016.2 hPa | 11.43 mm | - | - | - |
| 1777388992 | 19.44° C | 78% | 1015.5 hPa | 11.43 mm | - | - | - |
| 1777386831 | 20° C | 74% | 1014.9 hPa | 11.43 mm | - | - | - |
| 1777379230 | 14.44° C | 92% | 1014.5 hPa | 11.43 mm | - | - | - |
| 1777377100 | 13.89° C | 89% | 1013.8 hPa | 11.43 mm | - | - | - |
| 1777375640 | 13.89° C | 88% | 1013.5 hPa | 11.43 mm | - | - | - |
| 1777372037 | 13.89° C | 88% | 1012.8 hPa | 11.43 mm | - | - | - |
| 1777368465 | 13.33° C | 89% | 1013.8 hPa | 11.43 mm | - | - | - |
| 1777367717 | 13.33° C | 90% | 1013.8 hPa | 11.43 mm | - | - | - |
| 1777367377 | 12.78° C | 90% | 1014.2 hPa | 11.43 mm | - | - | - |
| 1777364861 | 12.78° C | 89% | 1013.8 hPa | 11.43 mm | - | - | - |
| 1777364138 | 13.33° C | 89% | 1014.5 hPa | 11.43 mm | - | - | - |
| 1777362692 | 13.33° C | 86% | 1013.2 hPa | 10.67 mm | - | - | - |
| 1777358003 | 13.33° C | 87% | 1014.2 hPa | 10.67 mm | - | - | - |
| 1777355873 | 13.89° C | 87% | 1015.2 hPa | 9.65 mm | - | - | - |
| 1777354781 | 15° C | 84% | 1018.6 hPa | 6.1 mm | - | - | - |
| 1777353314 | 16.67° C | 77% | 1018.6 hPa | 2.54 mm | - | - | - |
| 1777352267 | 19.44° C | 62% | 1017.6 hPa | 0.25 mm | - | - | - |
* Rain since midnight (hover to see other rain measurements)
** Current wind speed in m/s (hover to see current wind gust speed)